Location: Bogis-Bossey
(46.3500°N, 6.1667°E)
Time: 19:11:58
(UTC+00:00)

Cosmos 1766 Rocket - Pass Details

Date: 17 August 2022
Orbit: 604 x 632 km, 82.5° (Epoch: 01 October)

Event Time Altitude Azimuth Distance (km) Brightness Sun altitude
Rises 19:43:24 0° 178° (S) 2,874 6.6 -10.4°
Reaches altitude 10° 19:45:37 10° 175° (S) 1,978 5.8 -10.7°
Maximum altitude 19:49:56 61° 95° (E) 712 3.6 -11.4°
Drops below altitude 10° 19:54:20 10° 16° (NNE) 2,012 6.4 -12.0°
Sets 19:56:36 0° 13° (NNE) 2,928 7.3 -12.3°
